This is the latest recevied weather packets stored in our database for station/object KF0WJA. If no packets are shown the sender has not sent any weather packets the latest 10 day(s).
| Time | Temp. | Humidity | Pressure | Rain* | Wind** | Luminosity | Snow |
|---|---|---|---|---|---|---|---|
| 1788013438 | 26.67° C | 58% | 1019.7 hPa | 0 mm | - | 150 W/m² | - |
| 1788013138 | 26.67° C | 59% | 1019.6 hPa | 0 mm | - | 161 W/m² | - |
| 1788012837 | 26.11° C | 59% | 1019.8 hPa | 0 mm | - | 154 W/m² | - |
| 1788012532 | 26.11° C | 59% | 1019.7 hPa | 0 mm | - | 140 W/m² | - |
| 1788012227 | 26.11° C | 60% | 1019.8 hPa | 0 mm | - | 133 W/m² | - |
| 1788011926 | 25.56° C | 60% | 1019.8 hPa | 0 mm | - | 125 W/m² | - |
| 1788011625 | 25.56° C | 60% | 1019.9 hPa | 0 mm | - | 126 W/m² | - |
| 1788011321 | 25.56° C | 60% | 1019.8 hPa | 0 mm | - | 122 W/m² | - |
| 1788011019 | 25.56° C | 60% | 1019.9 hPa | 0 mm | - | 121 W/m² | - |
| 1788010716 | 25.56° C | 60% | 1020.1 hPa | 0 mm | - | 121 W/m² | - |
| 1788010413 | 25° C | 61% | 1020 hPa | 0 mm | - | 112 W/m² | - |
| 1788010108 | 25° C | 61% | 1019.7 hPa | 0 mm | - | 101 W/m² | - |
| 1788009803 | 25° C | 61% | 1020.1 hPa | 0 mm | - | 96 W/m² | - |
| 1788009501 | 25° C | 61% | 1019.7 hPa | 0 mm | - | 90 W/m² | - |
| 1788009196 | 25° C | 61% | 1019.8 hPa | 0 mm | - | 86 W/m² | - |
| 1788008891 | 25° C | 61% | 1019.9 hPa | 0 mm | - | 78 W/m² | - |
| 1788008600 | 25° C | 61% | 1019.8 hPa | 0 mm | - | 75 W/m² | - |
| 1788008284 | 24.44° C | 61% | 1019.8 hPa | 0 mm | - | 68 W/m² | - |
| 1788007982 | 24.44° C | 61% | 1019.7 hPa | 0 mm | - | 57 W/m² | - |
| 1788007681 | 24.44° C | 61% | 1019.6 hPa | 0 mm | - | 49 W/m² | - |
| 1788007377 | 23.89° C | 61% | 1019.7 hPa | 0 mm | - | 46 W/m² | - |
| 1788007071 | 23.89° C | 61% | 1019.6 hPa | 0 mm | - | 41 W/m² | - |
| 1788006770 | 23.89° C | 61% | 1019.7 hPa | 0 mm | - | 38 W/m² | - |
| 1788006470 | 23.33° C | 61% | 1019.5 hPa | 0 mm | - | 34 W/m² | - |
| 1788006164 | 23.33° C | 61% | 1019.6 hPa | 0 mm | - | 28 W/m² | - |
* Rain latest hour (hover to see other rain measurements)
** Current wind speed in m/s (hover to see current wind gust speed)